User: anonymous   Login
Location: Great Northern Moose Lodge
(44.6765°N, 71.1811°W)
Time: 07:44:47
(UTC-04:00)
Language:

Terra - Orbit

View from above orbital plane
View from above orbital plane
View from above satellite
View from above satellite

Ground track
Ground track

The orbit data is extracted from the following two-line orbital elements,

1 25994U 99068A   16178.08530292 -.00000052  00000-0 -14564-5 0  9997
2 25994  98.2096 252.2602 0001379  86.4923 273.6437 14.57110224878817
Epoch (UTC): 26 June 2016 02:02:50
Eccentricity: 0.0001379
inclination: 98.2096°
perigee height: 701 km
apogee height: 703 km
right ascension of ascending node: 252.2602°
argument of perigee: 86.4923°
revolutions per day: 14.57110224
mean anomaly at epoch: 273.6437°
orbit number at epoch: 87881

The dashed part of the orbit path shows where the satellite is in the earth's shadow,  

DLR